Location: Wavehorne
(51.0500°N, 0.8333°E)
Time: 17:56:12
(UTC+00:00)

Lacrosse 5 rocket - Pass Details

Date: 20 June 2021
Orbit: 460 x 634 km, 57.0° (Epoch: 30 July)

Event Time Altitude Azimuth Distance (km) Brightness Sun altitude
Rises 01:27:31 0° 296° (WNW) 2,490 4.7 -13.0°
Reaches altitude 10° 01:29:45 10° 305° (NW) 1,613 3.9 -12.8°
Maximum altitude 01:33:09 39° 16° (NNE) 716 2.6 -12.6°
Drops below altitude 10° 01:36:36 10° 86° (E) 1,636 4.1 -12.4°
Sets 01:38:52 0° 95° (E) 2,531 5.0 -12.3°
